Location: Molezzano
(43.9667°N, 11.4667°E)
Time: 06:00:27
(UTC+00:00)

Daily predictions for brighter satellites

Satellite Brightness Start Highest point End
(mag) Time Altitude Azimuth Time Altitude Azimuth Time Altitude Azimuth
Cosmos 676 Rocket 4.5 18:39:21 10° S 18:44:17 40° ESE 18:49:14 10° NE
Cosmos 972 4.4 18:42:01 10° NNW 18:47:03 86° ENE 18:51:55 10° SSE
MOS 1 4.4 18:42:18 10° SSE 18:47:52 65° ENE 18:53:29 10° N
CZ-2C R/B 4.0 18:45:36 10° S 18:50:11 46° W 18:54:46 10° NNW
Genesis I 3.2 18:46:20 10° NNW 18:50:14 77° NE 18:54:06 10° SE
USA 276 3.8 18:51:06 10° NW 18:53:55 28° N 18:56:44 10° ENE
X-37B 0.7 18:51:24 10° W 18:54:33 71° N 18:57:42 10° E
Cosmos 1980 Rocket 2.4 18:49:21 10° NNW 18:54:59 60° ENE 19:00:33 10° SE
Cosmos 1727 Rocket 4.5 18:50:55 10° NNW 18:57:14 68° W 19:03:30 10° S
IRIDIUM 104 4.3 18:52:17 10° S 18:57:28 77° E 19:02:42 10° N
Lacrosse 5 2.7 18:52:53 10° NW 18:57:42 40° NNE 19:02:28 10° ESE
CZ-2C R/B 4.3 18:55:13 10° NNE 18:59:23 34° E 19:03:26 10° SSE
Resurs 01 Rocket 2.7 18:57:41 10° SE 19:01:30 29° ENE 19:05:20 10° N
Cosmos 1833 Rocket 3.4 18:56:48 10° SW 19:02:20 60° WNW 19:07:55 10° NNE
USA 238 DEB 3.6 18:59:10 10° SSW 19:05:40 65° ESE 19:12:27 10° NE
USA 238 3.6 18:59:16 10° SSW 19:05:46 65° ESE 19:12:33 10° NE
SPOT 3 Rocket 3.9 19:01:19 10° SE 19:06:19 50° ENE 19:11:20 10° N
IRIDIUM 114 4.4 19:01:24 10° S 19:06:36 88° W 19:11:52 10° N
Cosmos 1697 Rocket 3.2 19:01:48 10° NNW 19:07:20 61° WSW 19:12:49 10° S
Cosmos 1867 3.8 19:02:24 10° SW 19:07:50 80° NW 19:13:20 10° NNE
GP-B 4.3 19:04:25 10° NNE 19:08:00 23° E 19:11:09 12° SE
MOS 1 Rocket 4.3 19:03:39 10° N 19:09:00 60° WNW 19:14:06 10° SSW
CENTAUR R/B 2.8 19:04:05 10° S 19:09:25 41° ESE 19:15:39 10° NE
Cosmos 1666 Rocket 3.5 19:05:20 10° S 19:09:36 68° E 19:13:57 10° NNE
Cosmos 1954 Rocket 4.0 19:07:06 10° S 19:12:22 69° ESE 19:17:41 10° NNE
DMSP B5D2-2 4.0 19:10:08 10° NNE 19:15:24 80° ESE 19:20:40 10° S
FREGAT/IRIS 3.4 19:13:44 10° S 19:16:15 42° W 19:18:48 10° NNW
Cosmos 1821 Rocket 4.2 19:10:54 10° S 19:17:04 80° W 19:23:22 10° N
Ariane Rocket 3.6 19:12:14 10° S 19:17:13 60° WSW 19:22:13 10° NNW
Cosmos 405 Rocket 3.8 19:15:00 13° SE 19:17:35 25° E 19:20:41 10° NE
Intercosmos 25 3.3 19:16:13 10° NNW 19:19:46 65° W 19:22:54 10° S
Cosmos 1812 4.0 19:17:41 10° NNW 19:21:19 41° W 19:24:56 10° SSW
SJ-6B 3.7 19:21:19 10° S 19:25:14 51° W 19:29:07 10° NNW
Cosmos 1140 Rocket 4.4 19:23:45 10° SW 19:28:52 54° WNW 19:34:02 10° NNE
NOSS 2 (A) 3.9 19:26:45 10° NW 19:29:15 81° SW 19:30:20 27° SSE
Cosmos 1763 Rocket 4.2 19:24:48 10° N 19:29:48 39° ENE 19:33:13 18° ESE
Resurs 1-3 3.6 19:25:53 10° SSE 19:30:17 86° ENE 19:34:42 10° NNW
Cosmos 1437 Rocket 4.2 19:27:47 10° NNE 19:30:42 21° ENE 19:31:55 18° E
OBJECT-B 1.0 19:29:41 10° S 19:32:55 74° WSW 19:36:13 10° NNW
Cosmos 2084 Rocket 3.5 19:30:28 10° SSW 19:34:30 53° ESE 19:38:41 10° NE
H-2A R/B 4.1 19:32:08 10° NNE 19:35:55 34° E 19:38:17 19° SSE
Cosmos 1633 Rocket 3.3 19:32:04 10° SSW 19:36:28 75° W 19:40:55 10° N
Cosmos 1184 Rocket 2.8 19:34:06 10° SSW 19:37:23 81° W 19:40:42 10° N
SPOT 5 4.5 19:38:25 13° E 19:39:54 15° ENE 19:42:28 10° NNE
Cosmos 921 Rocket 2.8 19:38:04 10° NNW 19:42:16 82° ENE 19:45:04 20° SSE
Cosmos 1535 Rocket 4.5 19:36:43 10° S 19:42:50 87° W 19:49:00 10° N
Cosmos 2123 Rocket 4.0 19:37:14 10° N 19:43:30 85° W 19:49:47 10° S
MetOp-B 4.3 19:40:53 19° SE 19:44:34 55° ENE 19:49:48 10° N
Cosmos 1605 Rocket 3.9 19:45:11 10° S 19:51:16 74° E 19:57:21 10° NNE
Meteor 1-19 Rocket 4.4 19:46:41 10° N 19:51:58 50° ENE 19:54:58 25° SE
Okean 1 3.5 19:50:34 10° N 19:54:34 53° E 19:56:09 32° SE
CZ-2C R/B 3.8 19:50:00 10° N 19:54:54 43° WNW 19:59:50 10° SW
NOSS 3-2 (A) 4.0 19:50:19 10° SW 19:55:57 61° NW 20:02:26 10° NNE
USA 267 3.4 19:52:01 10° ENE 19:58:17 47° SE 20:04:31 10° SSW
Cosmos 2219 Rocket 4.3 19:56:42 10° NNE 19:59:26 13° NE 20:02:09 10° ENE
Meteor 2-4 Rocket 4.4 19:55:24 10° N 20:00:33 36° ENE 20:02:35 27° ESE
Cosmos 540 Rocket 4.2 19:57:53 10° N 20:02:42 38° ENE 20:04:39 28° ESE
SL-16 R/B 2.3 19:58:00 10° NNW 20:03:40 64° ENE 20:06:28 30° SE
SL-4 R/B 3.9 20:00:30 10° WNW 20:03:51 26° N 20:07:00 10° NE
BREEZE-M DEB (TANK) 3.6 20:02:07 10° WNW 20:04:53 42° N 20:11:49 10° ENE
SL-27 R/B 2.2 20:04:27 50° SSE 20:05:01 60° ESE 20:08:18 10° NNE
Cosmos 1470 Rocket 3.9 20:01:56 10° SSW 20:06:18 65° W 20:10:39 10° N
NOSS 3-2 (C) 3.5 20:00:50 10° SW 20:06:31 79° NW 20:13:03 10° NE
Cosmos 2242 Rocket 3.5 20:02:47 10° N 20:07:13 77° E 20:09:08 33° SSE
Cosmos 2082 Rocket 4.1 20:06:09 10° WSW 20:11:09 31° NW 20:16:11 10° N
BREEZE-M DEB (TANK) 3.4 20:10:17 10° WNW 20:12:17 24° N 20:12:31 24° NNE
ERS-1 Rocket 3.5 20:16:14 35° ESE 20:17:41 44° ENE 20:22:26 10° N
Meteor 1-14 Rocket 4.2 20:13:21 17° S 20:18:02 78° E 20:24:01 10° NNE
Cosmos 2322 Rocket 2.2 20:15:17 10° NNW 20:21:00 71° ENE 20:23:14 38° SE
Cosmos 1850 Rocket 4.2 20:17:59 10° SSW 20:23:16 74° WNW 20:28:33 10° NNE
Cosmos 1500 3.6 20:25:36 46° ENE 20:25:36 46° ENE 20:28:47 10° NNE
SPOT 1/Viking Rocket 3.5 20:23:32 38° SSE 20:25:34 77° ENE 20:30:49 10° N
Cosmos 841 Rocket 3.6 20:23:13 10° NNW 20:28:27 64° ENE 20:29:56 45° SE
Terra 2.6 20:27:56 33° E 20:28:35 34° ENE 20:32:53 10° N
Cosmos 2360 Rocket 2.7 20:24:40 10° NNW 20:30:09 47° ENE 20:31:48 36° ESE
USA 276 2.4 20:27:23 10° WNW 20:30:10 64° NW 20:30:10 64° NW
IGS 5A 3.6 20:29:39 44° S 20:30:50 71° W 20:35:00 10° NNW
Meteor 1-18 Rocket 4.4 20:25:25 10° NNW 20:30:57 70° W 20:33:52 29° S
X-37B 1.6 20:28:05 10° W 20:30:22 39° WSW 20:30:22 39° WSW
ATLAS 3B R/B 2.6 20:25:04 10° SSW 20:31:31 59° ESE 20:38:01 10° NE
Cosmos 1238 Rocket 4.1 20:30:32 18° WSW 20:32:02 27° WNW 20:34:40 10° NNW
Okean 3 4.2 20:28:10 10° N 20:32:07 37° ENE 20:32:07 37° ENE
USA 234 4.0 20:29:00 21° E 20:33:11 47° NNE 20:39:23 10° NW
Cosmos 2237 4.5 20:28:45 10° NNW 20:34:22 55° ENE 20:35:58 42° ESE
Cosmos 1666 4.5 20:37:36 20° NE 20:37:36 20° NE 20:39:14 10° NNE
Resurs 01 Rocket 3.3 20:34:56 14° SSW 20:37:57 28° W 20:41:47 10° NW
Iridium 4 Rocket 3.6 20:38:44 40° ENE 20:38:44 40° ENE 20:42:09 10° NNE
Cosmos 1980 Rocket 4.3 20:34:23 10° NW 20:38:28 21° W 20:42:31 10° SSW
Cosmos 44 3.3 20:34:25 10° NW 20:39:23 81° WSW 20:40:36 53° SSE
Lacrosse 5 2.4 20:35:53 10° WNW 20:40:43 46° SW 20:41:50 39° SSW
CARTOSAT-1 3.4 20:40:31 66° ESE 20:40:53 71° ENE 20:45:12 10° N
Cosmos 2061 Rocket 4.1 20:50:45 48° SE 20:51:53 55° E 20:57:54 10° NNE
Spot 2 Rocket 4.2 20:51:17 33° SSW 20:53:13 49° W 20:58:10 10° NNW
Cosmos 1814 Rocket 3.9 20:50:53 10° NNW 20:56:08 89° ENE 20:56:56 65° SSE
COSMOS 2428 4.0 20:51:36 10° N 20:56:29 28° NE 20:57:48 25° ENE
Cosmos 1802 Rocket 3.9 20:54:58 47° SSE 20:56:51 73° E 21:03:10 10° NNE
Cosmos 1869 Rocket 3.8 20:57:43 54° SW 20:58:30 66° W 21:02:58 10° N
CENTAUR R/B 3.7 20:54:14 10° WSW 21:00:00 44° NW 21:06:49 10° NNE
Cosmos 2237 Rocket 4.4 20:57:35 10° N 21:00:26 14° NE 21:02:46 11° ENE
Okean 1-7 3.9 20:57:02 10° NNW 21:01:05 41° W 21:01:51 37° WSW
Cosmos 1437 Rocket 4.4 21:03:43 10° NW 21:06:55 26° W 21:07:19 26° WSW
ATLAS 5 CENTAUR R/B 2.7 21:11:37 10° NNW 21:14:39 56° NE 21:14:58 55° ENE
Cosmos 2333 Rocket 2.8 21:09:11 10° NNW 21:14:41 44° ENE 21:15:19 42° ENE
SPOT 5 3.0 21:17:39 56° W 21:17:39 56° W 21:21:51 10° NNW
Cosmos 1066 Rocket 4.2 21:15:52 10° N 21:21:29 62° ENE 21:21:30 62° ENE
Cosmos 1733 Rocket 3.8 21:29:41 48° NNE 21:29:41 48° NNE 21:32:56 10° N
Meteor 1-11 Rocket 3.8 21:31:46 63° SW 21:32:34 73° WNW 21:38:23 10° N
Cosmos 968 Rocket 4.0 21:37:25 47° NE 21:37:25 47° NE 21:41:11 10° NNE
Lacrosse 4 Rocket 2.5 21:37:37 42° N 21:37:37 42° N 21:40:43 10° NNE
Tsikada Rocket 3.8 21:31:55 10° N 21:38:17 87° E 21:38:46 78° SSE
USA 267 3.7 21:34:59 10° NE 21:41:24 60° NNW 21:47:48 10° WSW
SL-4 R/B 3.9 21:40:46 10° NW 21:42:59 26° NNW 21:42:59 26° NNW
Cosmos 2219 Rocket 2.3 21:38:52 10° NNW 21:44:23 65° NE 21:44:23 65° NE
SL-16 R/B 4.0 21:43:15 10° NW 21:47:12 20° W 21:48:20 19° WSW
Cosmos 1725 Rocket 4.4 21:55:18 51° WSW 21:56:27 59° WNW 22:02:43 10° N
Meteor 1-23 Rocket 4.3 21:51:34 10° NNW 21:57:14 70° W 21:57:14 70° W
Cosmos 2322 3.9 21:52:15 10° NNW 21:57:25 66° WNW 21:57:25 66° WNW
Cosmos 2322 Rocket 4.2 22:00:45 10° WNW 22:04:24 18° W 22:05:03 17° WSW
Terra 3.4 22:06:49 27° W 22:06:49 27° W 22:10:25 10° NW
Cosmos 2360 Rocket 3.6 22:09:10 10° NW 22:13:33 27° W 22:13:33 27° W
USA 234 3.2 22:16:20 67° WSW 22:16:20 67° WSW 22:22:33 10° NW
SL-16 R/B 4.2 22:12:12 10° N 22:16:12 19° NE 22:17:40 17° ENE
ATLAS 3B R/B 4.0 22:16:35 10° WSW 22:22:32 35° NW 22:28:35 10° NNE
MOS 1-B Rocket 4.1 22:17:39 10° N 22:23:09 60° WNW 22:23:10 60° WNW
Cosmos 2297 Rocket 3.6 22:32:12 28° ENE 22:32:12 28° ENE 22:35:12 10° NE
Thor Agena Rocket 4.2 22:31:05 10° N 22:35:03 52° NNW 22:35:03 52° NNW
Cosmos 1980 4.2 22:32:11 10° NNW 22:36:58 57° NNE 22:36:58 57° NNE
Timation 2 Rocket 4.2 22:39:52 59° NE 22:39:52 59° NE 22:44:43 10° NNE
COSMOS 2428 3.5 22:35:30 10° NW 22:39:48 44° WNW 22:39:48 44° WNW
Cosmos 2219 4.1 22:46:31 40° NE 22:46:31 40° NE 22:50:09 10° NNE
Cosmos 1464 Rocket 4.1 22:46:12 70° NNE 22:46:12 70° NNE 22:51:37 10° N
Cosmos 2237 Rocket 2.7 22:39:57 10° NNW 22:44:34 56° N 22:44:34 56° N
NOSS 0 Rocket 4.2 22:46:35 10° NNW 22:51:50 61° WNW 22:51:50 61° WNW
Nadezhda 4 Rocket 4.2 22:49:21 10° N 22:54:56 64° NE 22:54:56 64° NE
Cosmos 2333 Rocket 3.7 22:53:49 10° NW 22:57:19 27° WNW 22:57:19 27° WNW
Cosmos 1092 Rocket 4.3 23:11:13 10° N 23:16:44 60° NE 23:16:44 60° NE
Cosmos 2034 Rocket 4.2 23:19:27 69° NNW 23:19:27 69° NNW 23:25:08 10° N
Cosmos 2227 Rocket 2.8 23:22:00 52° NNE 23:22:00 52° NNE 23:26:13 10° NNE
Cosmos 2219 Rocket 4.3 23:24:02 10° NW 23:26:05 17° WNW 23:26:05 17° WNW
Resurs 1-4 Rocket 4.3 23:33:08 10° NE 23:35:32 15° E 23:35:32 15° E
Cosmos 2082 4.3 23:48:47 54° NE 23:48:47 54° NE 23:53:04 10° NNE
Cosmos 1607 4.2 23:42:04 10° NW 23:47:26 63° NW 23:47:26 63° NW
USA 229 DEB 4.0 23:53:16 51° E 23:53:16 51° E 23:58:56 10° NE
USA 229 4.0 23:53:24 51° E 23:53:24 51° E 23:59:01 10° NE
